[[{"header":{"parameterUnit":"m.s-1","parameterCategory":1,"la1":30.2991,"la2":30.254,"lo1":-89.0895,"lo2":-89.0444,"dy":0.0017,"dx":0.0017,"nx":28,"ny":28,"refTime":"2024-06-08T03:00:00:Z","depth":0,"parameterNumber":2,"parameterNumberName":"U-component_of_WINDS"},"data":[0,0,0,0,0,0,0,0,0,0,0,0,0,0,0,0,0,0,0,0,0,0,0,0,0,0,0,0,0,0,0,0,0,0,0,0,0,0,0,0,0,0,0,0,0,0,0,0,0,0,0,0,0,0,0,0,0,0,0.4383,0.4384,0,0.4497,0.4498,0.45,0.4555,0.4555,0.4555,0.4555,0.4675,0.4678,0.4681,0,0,0,0,0,0,0,0,0,0,0,0,0,0.4216,0.4219,0.4383,0.4385,0.4386,0.4497,0.4498,0.45,0.4556,0.4555,0.4555,0.4555,0.4674,0.4677,0.4681,0,0,0,0,0,0,0,0,0,0,0,0,0,0.4305,0.422,0.4383,0.4427,0.4432,0.4496,0.4498,0.45,0.4556,0.4555,0.4555,0.4555,0.4672,0.4677,0.4682,0.4711,0,0,0.4696,0.4698,0,0,0,0,0,0,0,0,0.43,0.4311,0.4419,0.4424,0.443,0.4512,0.4483,0.4571,0.4556,0.4509,0.4555,0.4555,0.4621,0.463,0.4651,0.4717,0.4722,0.4697,0.47,0.4702,0.4703,0,0,0,0,0,0,0,0.4294,0.4307,0.4428,0.4421,0.4427,0.4442,0.4454,0.45,0.4564,0.4513,0.4517,0.453,0.4624,0.4646,0.4654,0.4724,0.4697,0.4701,0.4704,0.4706,0.482,0.482,0,0,0,0,0,0,0.428,0.4301,0.4425,0.4432,0.4363,0.4445,0.4459,0.4486,0.4563,0.4575,0.453,0.4532,0.4638,0.4649,0.4659,0.4699,0.4702,0.4706,0.4709,0.482,0.482,0.482,0,0,0,0,0,0,0.4276,0.429,0.442,0.4368,0.4385,0.4448,0.4477,0.4488,0.4511,0.4576,0.4588,0.4541,0.4639,0.4652,0.4698,0.4704,0.4708,0.4713,0.482,0.482,0.482,0.4779,0,0,0,0,0,0,0.4271,0.4289,0.43,0.4367,0.4388,0.4456,0.4478,0.449,0.4519,0.4523,0.459,0.4601,0.464,0.469,0.4702,0.471,0.4716,0.4819,0.482,0.482,0.478,0.4777,0.4775,0,0,0,0,0,0.4265,0.4285,0.4301,0.4315,0.4403,0.4457,0.4468,0.4512,0.4519,0.4531,0.4573,0.4599,0.4701,0.4694,0.4709,0.4718,0.4819,0.482,0.482,0.4781,0.4778,0.4775,0,0,0,0,0,0,0.4218,0.4294,0.4313,0.4355,0.4398,0.4466,0.4483,0.4508,0.4551,0.4553,0.4606,0.4621,0.4662,0.4695,0.4686,0.4751,0.4763,0.4766,0.4728,0.4726,0.4724,0.4715,0.472,0,0,0,0,0,0.4212,0.4248,0.4313,0.4344,0.4365,0.442,0.4445,0.4474,0.4522,0.4541,0.4587,0.4633,0.4675,0.4702,0.4745,0.4785,0.48,0.4798,0.4796,0.4794,0.4796,0.4819,0.4819,0.4821,0.4821,0.4821,0,0,0.4201,0.4247,0.4267,0.4336,0.4373,0.441,0.4435,0.4473,0.4501,0.4548,0.4593,0.4628,0.4683,0.4725,0.4746,0.4754,0.4799,0.4794,0.4792,0.4796,0.482,0.4819,0.4819,0.4822,0.4822,0.4822,0,0,0.4199,0.4238,0.4268,0.4304,0.436,0.4397,0.4404,0.4467,0.4492,0.4538,0.4573,0.4608,0.468,0.4718,0.4746,0.4758,0.4784,0.4771,0.476,0.4781,0.4781,0.4781,0.4786,0.4786,0.4773,0.4773,0.4773,0,0.4179,0.4235,0.428,0.4316,0.4345,0.4387,0.4418,0.4452,0.4519,0.4539,0.4546,0.4637,0.4677,0.4729,0.4732,0.4754,0.4763,0.4763,0.4777,0.4778,0.4779,0.4783,0.4785,0.4771,0.4771,0.4771,0.4771,0,0.4207,0.4245,0.4262,0.4325,0.4357,0.439,0.444,0.4466,0.4493,0.4529,0.4575,0.4625,0.4678,0.4692,0.4719,0.4748,0.4751,0.4767,0.478,0.4776,0.4781,0.4783,0.4768,0.4769,0.4769,0.477,0,0,0.4179,0.4266,0.4271,0.43,0.4365,0.4396,0.4431,0.4482,0.4504,0.4549,0.458,0.4639,0.4654,0.4687,0.4718,0.4737,0.4743,0.4751,0.4753,0.4748,0.4778,0.4765,0.4766,0.476,0.4761,0.4761,0.4773,0,0.4186,0.425,0.4292,0.4339,0.4376,0.4416,0.4447,0.449,0.4524,0.456,0.4598,0.4639,0.4656,0.4676,0.4697,0.4738,0.475,0.4738,0.479,0.4791,0.4775,0.4769,0.4756,0.4765,0.4775,0.4776,0.4776,0,0.4204,0.4247,0.4298,0.4358,0.4375,0.4401,0.4451,0.4485,0.4535,0.4559,0.4594,0.4626,0.4665,0.4674,0.4728,0.4719,0.4743,0.4766,0.4768,0.4775,0.4783,0.4776,0.4769,0.477,0.478,0.478,0.4779,0,0.4178,0.4249,0.4289,0.4312,0.4384,0.4401,0.4432,0.4482,0.451,0.4554,0.4572,0.462,0.4647,0.4684,0.4728,0.473,0.4778,0.4791,0.4799,0.4798,0.4807,0.4806,0.4804,0.4822,0.4822,0.4822,0.4822,0,0.4182,0.4212,0.4278,0.4302,0.4337,0.4384,0.4417,0.4451,0.4495,0.4527,0.4565,0.4595,0.4651,0.4687,0.4722,0.4762,0.4774,0.4794,0.4803,0.4791,0.4788,0.4807,0.4808,0.4823,0.4822,0.4822,0.4822,0,0.416,0.4205,0.4251,0.4315,0.4331,0.4354,0.4409,0.4434,0.447,0.451,0.4522,0.4578,0.4623,0.467,0.4731,0.4755,0.4793,0.4805,0.4776,0.4781,0.4786,0.4785,0.4796,0.48,0.4815,0.4815,0.4815,0,0.416,0.4183,0.4249,0.4273,0.4302,0.434,0.4369,0.4416,0.4445,0.4503,0.4521,0.4568,0.4609,0.4678,0.4725,0.4772,0.4786,0.4787,0.4793,0.478,0.4786,0.4784,0.4787,0.4785,0.4784,0.4784,0.4784,0,0.4154,0.4175,0.4215,0.4261,0.4294,0.4334,0.4375,0.4392,0.4448,0.4478,0.4523,0.4554,0.4616,0.4663,0.4715,0.4747,0.4775,0.4781,0.4785,0.4773,0.4755,0.4765,0.477,0.4781,0.4781,0.4781,0.4781,0.4781,0.4143,0.4166,0.4215,0.4258,0.4293,0.4331,0.4357,0.4396,0.4435,0.4488,0.4514,0.456,0.4609,0.4682,0.4713,0.475,0.4758,0.4764,0.4766,0.4767,0.4764,0.4749,0.476,0.476,0.476,0.476,0.476,0,0.4139,0.4173,0.4212,0.4267,0.4301,0.4323,0.4369,0.4396,0.4435,0.4478,0.4517,0.4569,0.4614,0.4664,0.4713,0.4732,0.4746,0.4743,0.4743,0.4749,0.4754,0.4745,0.4731,0.4731,0.4731,0.4731,0.4731,0.4731,0.4141,0.4181,0.4208,0.4265,0.4299,0.4344,0.4368,0.4403,0.4438,0.4494,0.4531,0.4563,0.4609,0.4661,0.4704,0.4717,0.4733,0.4727,0.4744,0.4747,0.4749,0.4751,0.4744,0.473,0.473,0.4737,0.4737,0.4737]},{"header":{"parameterUnit":"m.s-1","parameterCategory":1,"la1":30.2991,"la2":30.254,"lo1":-89.0895,"lo2":-89.0444,"dy":0.0017,"dx":0.0017,"nx":28,"ny":28,"refTime":"2024-06-08T03:00:00:Z","depth":0,"parameterNumber":3,"parameterNumberName":"V-component_of_WINDS"},"data":[0,0,0,0,0,0,0,0,0,0,0,0,0,0,0,0,0,0,0,0,0,0,0,0,0,0,0,0,0,0,0,0,0,0,0,0,0,0,0,0,0,0,0,0,0,0,0,0,0,0,0,0,0,0,0,0,0,0,3.8551,3.8551,0,3.8518,3.8518,3.8517,3.8516,3.8517,3.8517,3.8517,3.8477,3.8476,3.8474,0,0,0,0,0,0,0,0,0,0,0,0,0,3.8608,3.8607,3.8551,3.8551,3.855,3.8518,3.8518,3.8517,3.8516,3.8517,3.8517,3.8518,3.8478,3.8476,3.8474,0,0,0,0,0,0,0,0,0,0,0,0,0,3.858,3.8607,3.8551,3.8546,3.8545,3.8518,3.8518,3.8517,3.8516,3.8517,3.8517,3.8518,3.8478,3.8476,3.8474,3.8448,0,0,3.8467,3.8466,0,0,0,0,0,0,0,0,3.8581,3.8578,3.8547,3.8546,3.8545,3.8522,3.8523,3.8494,3.8516,3.8527,3.8517,3.8518,3.8491,3.8488,3.848,3.8446,3.8445,3.8467,3.8466,3.8465,3.8464,0,0,0,0,0,0,0,3.8583,3.8579,3.8538,3.8547,3.8546,3.8544,3.854,3.8517,3.8506,3.8526,3.8526,3.8522,3.8491,3.8482,3.8479,3.8444,3.8467,3.8465,3.8464,3.8463,3.8386,3.8386,0,0,0,0,0,0,3.8587,3.8581,3.8539,3.8537,3.8566,3.8542,3.8538,3.8529,3.8506,3.8503,3.8522,3.8522,3.8486,3.8482,3.8478,3.8446,3.8465,3.8463,3.8462,3.8387,3.8386,3.8386,0,0,0,0,0,0,3.8588,3.8583,3.854,3.8559,3.8553,3.854,3.853,3.8528,3.8519,3.8503,3.85,3.8516,3.8486,3.8481,3.8456,3.8445,3.8462,3.846,3.8388,3.8387,3.8386,3.8382,0,0,0,0,0,0,3.859,3.8584,3.8575,3.8559,3.8552,3.8521,3.8529,3.8527,3.8516,3.8517,3.8497,3.8494,3.8486,3.8459,3.8454,3.8442,3.8458,3.8389,3.8388,3.8386,3.8383,3.8381,3.8379,0,0,0,0,0,3.8592,3.8574,3.8575,3.857,3.8541,3.852,3.8516,3.851,3.8516,3.8506,3.8495,3.8494,3.8447,3.8457,3.845,3.8438,3.839,3.8388,3.8386,3.8384,3.8382,3.8379,0,0,0,0,0,0,3.8587,3.8572,3.8572,3.8549,3.8536,3.852,3.8508,3.8507,3.8491,3.8491,3.8482,3.8478,3.8453,3.8443,3.8454,3.8411,3.8419,3.8416,3.8419,3.8416,3.8414,3.8417,3.8456,0,0,0,0,0,3.8584,3.857,3.8556,3.8537,3.8531,3.852,3.8511,3.8507,3.8492,3.8486,3.8474,3.8458,3.8439,3.8427,3.8409,3.8382,3.8377,3.837,3.8368,3.8366,3.8364,3.8348,3.8345,3.838,3.838,3.838,0,0,3.8576,3.8566,3.8557,3.8536,3.8525,3.8509,3.8516,3.8498,3.8485,3.8483,3.8459,3.8449,3.8431,3.8405,3.8392,3.8395,3.8353,3.8364,3.8363,3.8361,3.8346,3.8343,3.834,3.8379,3.8379,3.8379,0,0,3.8554,3.8545,3.8528,3.8518,3.8503,3.8496,3.8492,3.8476,3.847,3.8447,3.8445,3.8428,3.8397,3.8384,3.8373,3.8346,3.8345,3.8341,3.833,3.8315,3.8312,3.8309,3.83,3.8296,3.8338,3.8338,3.8338,0,3.8546,3.8523,3.8519,3.8502,3.8492,3.8491,3.8473,3.8463,3.8442,3.8434,3.8438,3.8399,3.8387,3.8357,3.8351,3.8342,3.8336,3.8343,3.8313,3.8311,3.8308,3.8298,3.8295,3.8338,3.8338,3.8338,3.8338,0,3.8514,3.8498,3.8486,3.8468,3.8456,3.8439,3.843,3.8419,3.8416,3.8409,3.8384,3.8369,3.8348,3.8341,3.8337,3.8311,3.8313,3.8315,3.8323,3.8304,3.8295,3.8291,3.8337,3.8337,3.8337,3.8338,0,0,3.8487,3.8468,3.8463,3.8455,3.8439,3.8426,3.8407,3.8389,3.8379,3.8365,3.8348,3.8322,3.8324,3.8312,3.8307,3.8293,3.8273,3.8297,3.8296,3.8293,3.8242,3.8241,3.8237,3.8272,3.8271,3.827,3.8244,0,3.8463,3.8433,3.8429,3.8401,3.8386,3.8385,3.8369,3.8356,3.8349,3.8333,3.8324,3.8305,3.831,3.8303,3.8289,3.8278,3.8262,3.828,3.8255,3.8254,3.826,3.8232,3.823,3.8206,3.824,3.8239,3.8239,0,3.843,3.8417,3.8389,3.8375,3.8369,3.8355,3.8338,3.8324,3.8308,3.8303,3.829,3.8287,3.8266,3.8275,3.8245,3.8257,3.8247,3.824,3.8238,3.8235,3.8245,3.8228,3.8198,3.8194,3.8233,3.8234,3.8234,0,3.8414,3.8389,3.8369,3.8362,3.8345,3.8335,3.8327,3.8313,3.8302,3.8286,3.8279,3.826,3.825,3.8235,3.8225,3.8233,3.8197,3.8204,3.8191,3.8191,3.8183,3.8184,3.815,3.8176,3.8177,3.8177,3.8177,0,3.8387,3.837,3.8362,3.8349,3.8329,3.8324,3.8304,3.8296,3.8283,3.8268,3.8265,3.825,3.8239,3.8223,3.8215,3.8192,3.8187,3.8181,3.8179,3.8181,3.8182,3.8174,3.8175,3.8176,3.8176,3.8176,3.8176,0,3.8365,3.8359,3.8337,3.8324,3.832,3.8306,3.8293,3.828,3.8273,3.8253,3.8248,3.8236,3.8216,3.8206,3.818,3.8175,3.8149,3.8148,3.8155,3.8154,3.8141,3.8143,3.8101,3.8096,3.8126,3.8125,3.8125,0,3.8348,3.8336,3.8321,3.8312,3.8304,3.8289,3.8279,3.8272,3.8261,3.8243,3.8232,3.8213,3.8197,3.8165,3.8153,3.8133,3.8131,3.8118,3.8128,3.8131,3.8131,3.8132,3.813,3.8117,3.8116,3.8116,3.8116,0,3.832,3.8317,3.8304,3.8289,3.8277,3.8265,3.8252,3.8244,3.8236,3.8223,3.8204,3.8192,3.8167,3.8147,3.8127,3.8117,3.8114,3.8113,3.8109,3.8111,3.8115,3.8113,3.815,3.8114,3.8114,3.8114,3.8114,3.8114,3.8299,3.8288,3.8277,3.8261,3.8252,3.824,3.8228,3.822,3.8204,3.8185,3.8182,3.8161,3.8146,3.8119,3.8108,3.809,3.8093,3.8087,3.8085,3.8084,3.8083,3.8119,3.8087,3.8087,3.8087,3.8087,3.8087,0,3.827,3.8263,3.8249,3.8233,3.8221,3.8222,3.8208,3.8197,3.818,3.8167,3.8152,3.813,3.8111,3.8098,3.8078,3.8066,3.8065,3.8061,3.8062,3.806,3.8082,3.8088,3.8063,3.8063,3.8063,3.8063,3.8063,3.8063,3.8254,3.8235,3.8231,3.8207,3.8199,3.8181,3.8173,3.8162,3.8151,3.8128,3.8113,3.8105,3.8091,3.807,3.8052,3.8049,3.8041,3.8038,3.8034,3.8055,3.8058,3.806,3.8066,3.8036,3.8036,3.8013,3.8013,3.8012]}]]